Regional Weather Roundup
Issued by NWS Bismarck, ND

Home | Current Version | Previous Version | Text Only | Print | Product List | Glossary On
Versions: 1 2 3 4 5 6 7 8 9 10 11 12 13 14 15 16 17 18 19 20 21 22 23 24 25 26 27 28 29 30 31 32 33 34 35 36 37 38 39 40 41 42 43 44 45 46 47 48 49 50
000
ASUS43 KBIS 281910
RWRBIS

NWR BROADCAST TEXT
NATIONAL WEATHER SERVICE BISMARCK ND
200 PM CDT FRI JUL 28 2017

NOTE: "FAIR" INDICATES FEW OR NO CLOUDS BELOW 12,000 FEET WITH NO
SIGNIFICANT WEATHER AND/OR OBSTRUCTIONS TO VISIBILITY.


CITY           SKY/WX    TMP DP  RH WIND       PRES   REMARKS
WILLISTON      SUNNY     88  59  37 SE13G18   29.96F
MINOT          MOSUNNY   90  59  35 S13G20    30.00F
MINOT AFB      SUNNY     88  57  35 S13G21    29.98F
BISMARCK       MOSUNNY   84  62  47 SE14      30.04S
DICKINSON      MOSUNNY   86  59  39 S13G20    29.99F
GARRISON         N/A     83  62  49 S13       30.02S
HETTINGER ARPT MOSUNNY   85  58  39 SE18G24   30.02F
JAMESTOWN      SUNNY     86  58  38 S7        30.06F
HAZEN          FAIR      82  57  42 S13       30.03F
LINTON           N/A    N/A N/A N/A SE14      30.07S
MANDAN         FAIR      84  57  39 S14       30.05S
STANLEY        FAIR      84  57  39 S15G24    30.03F
TIOGA          FAIR      84  57  39 S15G22    30.01F
WATFORD CITY   FAIR      88  59  37 SE10G20   29.96F
$$

CITY           SKY/WX    TMP DP  RH WIND       PRES   REMARKS
GRAND FORKS    MOSUNNY   85  60  42 S8        30.05F
GRAND FORKS AF SUNNY     84  59  42 SW6       30.06F
DEVILS LAKE    PTSUNNY   83  61  47 S8        30.06S
FARGO          MOSUNNY   86  59  39 SE6       30.06F
CAVALIER       FAIR      82  63  51 CALM      30.04S
GRAFTON        FAIR      84  61  45 S10       30.06F
GWINNER        PTCLDY    84  63  48 E7        30.07F
LANGDON        FAIR      84  64  51 S8        30.07F
ROLLA            N/A     82  61  47 S12G17    30.05S
$$

CITY           SKY/WX    TMP DP  RH WIND       PRES   REMARKS
ABERDEEN       SUNNY     81  61  50 S10       30.07F
MOBRIDGE       MOSUNNY   84  63  49 SE16      30.01F
BUFFALO          N/A     85  58  39 VRB3      29.95F
RAPID CITY     SUNNY     85  59  41 VRB3      30.03F
GLASGOW        SUNNY     88  54  31 MISG      29.94F
SIDNEY         SUNNY     85  63  47 S6        29.95F
WOLF POINT     SUNNY     91  53  27 VRB3      29.93F
GLENDIVE       SUNNY     82  58  43 E3        29.98F
MILES CITY     SUNNY     92  48  22 N6        29.97F
BAKER          SUNNY     87  53  31 MISG      30.00F
$$

CITY           SKY/WX    TMP DP  RH WIND       PRES   REMARKS
BILLINGS       MOSUNNY   89  44  20 SW6       30.06F
GREAT FALLS    SUNNY     87  41  19 NW9       30.08F
REGINA         MOSUNNY   91  55  29 SW14G24   29.89F
ESTEVAN        MOSUNNY   86  59  39 SE12      29.96F
$$





USA.gov is the U.S. government's official web portal to all federal, state and local government web resources and services.